N2309H KCRQ-KL35

Flight info

Callsign N2309H
Flight time 0h 23m
Altitude VFR/115
Route
Aircraft PC12/L-DOV/C

Departure

Time 2026-05-06 21:12
Airport McClellan-Palomar Airport (KCRQ)

Arrival

Time 2026-05-06 21:35
Airport Big Bear City Airport (KL35)
Time Latitude Longitude Altitude Speed Heading
2026-05-06 21:07 33.12734 -117.27863 328 ft 0 kts 259°
2026-05-06 21:08 33.12738 -117.27877 328 ft 4 kts 309°
2026-05-06 21:08 33.12766 -117.27863 328 ft 8 kts 76°
2026-05-06 21:08 33.12779 -117.27782 328 ft 11 kts 79°
2026-05-06 21:08 33.12795 -117.27684 328 ft 13 kts 79°
2026-05-06 21:09 33.12814 -117.27568 327 ft 15 kts 79°
2026-05-06 21:09 33.12834 -117.27441 328 ft 16 kts 79°
2026-05-06 21:09 33.12853 -117.27323 326 ft 7 kts 77°
2026-05-06 21:09 33.12855 -117.27315 327 ft 0 kts 77°
2026-05-06 21:10 33.12857 -117.27304 327 ft 6 kts 67°
2026-05-06 21:10 33.12906 -117.27241 328 ft 12 kts 31°
2026-05-06 21:11 33.12937 -117.27299 331 ft 10 kts 264°
2026-05-06 21:11 33.12901 -117.27539 329 ft 56 kts 261°
2026-05-06 21:11 33.12800 -117.28146 376 ft 86 kts 261°
2026-05-06 21:11 33.12663 -117.28903 588 ft 101 kts 260°
2026-05-06 21:12 33.12523 -117.29805 877 ft 117 kts 269°
2026-05-06 21:12 33.12887 -117.30728 1183 ft 140 kts 311°
2026-05-06 21:12 33.13780 -117.31381 1441 ft 164 kts 336°
2026-05-06 21:12 33.14914 -117.31845 1710 ft 181 kts 342°
2026-05-06 21:13 33.16191 -117.32160 1965 ft 193 kts 348°
2026-05-06 21:13 33.17551 -117.32192 2218 ft 203 kts 12°
2026-05-06 21:13 33.18867 -117.31512 2483 ft 207 kts 25°
2026-05-06 21:13 33.20152 -117.30825 2986 ft 198 kts 21°
2026-05-06 21:14 33.21419 -117.30266 3476 ft 191 kts 19°
2026-05-06 21:14 33.22672 -117.29751 3966 ft 190 kts 19°
2026-05-06 21:14 33.23923 -117.29230 4461 ft 191 kts 20°
2026-05-06 21:14 33.25172 -117.28705 4956 ft 190 kts 19°
2026-05-06 21:15 33.26427 -117.28256 5446 ft 188 kts 15°
2026-05-06 21:15 33.27666 -117.27879 6047 ft 180 kts 15°
2026-05-06 21:15 33.28850 -117.27514 6657 ft 172 kts 15°
2026-05-06 21:15 33.29986 -117.27157 7249 ft 165 kts 15°
2026-05-06 21:16 33.31072 -117.26836 7838 ft 156 kts 13°
2026-05-06 21:16 33.31974 -117.26222 8452 ft 148 kts 39°
2026-05-06 21:16 33.32725 -117.25418 9075 ft 142 kts 41°
2026-05-06 21:16 33.33440 -117.24636 9707 ft 137 kts 41°
2026-05-06 21:17 33.34148 -117.23863 10214 ft 140 kts 41°
2026-05-06 21:17 33.34875 -117.23068 10679 ft 143 kts 41°
2026-05-06 21:17 33.35620 -117.22254 11158 ft 146 kts 41°
2026-05-06 21:17 33.36429 -117.21482 11491 ft 158 kts 24°
2026-05-06 21:18 33.37580 -117.21174 11506 ft 186 kts 10°
2026-05-06 21:18 33.38934 -117.20940 11504 ft 206 kts 10°
2026-05-06 21:18 33.40389 -117.20617 11502 ft 219 kts 13°
2026-05-06 21:18 33.41904 -117.20194 11489 ft 228 kts 14°
2026-05-06 21:19 33.43467 -117.19743 11498 ft 234 kts 14°
2026-05-06 21:19 33.45065 -117.19296 11493 ft 238 kts 14°
2026-05-06 21:19 33.46689 -117.18848 11492 ft 241 kts 14°
2026-05-06 21:19 33.48322 -117.18395 11482 ft 242 kts 14°
2026-05-06 21:20 33.49966 -117.17938 11478 ft 243 kts 14°
2026-05-06 21:20 33.51620 -117.17477 11475 ft 245 kts 14°
2026-05-06 21:20 33.53278 -117.17016 11480 ft 245 kts 14°
2026-05-06 21:20 33.54933 -117.16555 11477 ft 244 kts 14°
2026-05-06 21:21 33.56587 -117.16095 11483 ft 244 kts 14°
2026-05-06 21:21 33.58238 -117.15635 11486 ft 243 kts 14°
2026-05-06 21:21 33.59887 -117.15176 11488 ft 243 kts 14°
2026-05-06 21:21 33.61538 -117.14716 11489 ft 244 kts 14°
2026-05-06 21:22 33.63186 -117.14256 11491 ft 243 kts 14°
2026-05-06 21:22 33.64833 -117.13797 11494 ft 243 kts 14°
2026-05-06 21:22 33.66480 -117.13338 11496 ft 243 kts 14°
2026-05-06 21:22 33.68128 -117.12878 11496 ft 243 kts 14°
2026-05-06 21:23 33.69775 -117.12418 11499 ft 243 kts 14°
2026-05-06 21:23 33.71423 -117.11957 11499 ft 243 kts 14°
2026-05-06 21:23 33.73071 -117.11497 11500 ft 243 kts 14°
2026-05-06 21:23 33.74719 -117.11036 11500 ft 243 kts 14°
2026-05-06 21:24 33.76369 -117.10575 11450 ft 243 kts 14°
2026-05-06 21:24 33.78016 -117.10114 11456 ft 243 kts 14°
2026-05-06 21:24 33.79664 -117.09653 11456 ft 243 kts 14°
2026-05-06 21:24 33.81311 -117.09191 11456 ft 243 kts 14°
2026-05-06 21:25 33.82956 -117.08731 11452 ft 243 kts 14°
2026-05-06 21:25 33.84603 -117.08269 11455 ft 243 kts 14°
2026-05-06 21:25 33.86248 -117.07808 11452 ft 243 kts 15°
2026-05-06 21:25 33.87895 -117.07346 11448 ft 243 kts 15°
2026-05-06 21:26 33.89542 -117.06884 11446 ft 243 kts 15°
2026-05-06 21:26 33.91189 -117.06422 11452 ft 243 kts 15°
2026-05-06 21:26 33.92847 -117.05956 11303 ft 246 kts 15°
2026-05-06 21:26 33.94521 -117.05484 11133 ft 247 kts 15°
2026-05-06 21:27 33.96199 -117.05012 10972 ft 248 kts 15°
2026-05-06 21:27 33.97884 -117.04539 10794 ft 249 kts 15°
2026-05-06 21:27 33.99566 -117.04066 10628 ft 248 kts 15°
2026-05-06 21:27 34.01242 -117.03594 10467 ft 247 kts 15°
2026-05-06 21:28 34.02914 -117.03124 10298 ft 246 kts 15°
2026-05-06 21:28 34.04568 -117.02658 10132 ft 239 kts 15°
2026-05-06 21:28 34.06081 -117.02232 9965 ft 214 kts 15°
2026-05-06 21:28 34.07461 -117.01844 9771 ft 197 kts 15°
2026-05-06 21:29 34.08787 -117.01472 9591 ft 194 kts 15°
2026-05-06 21:29 34.10090 -117.01105 9412 ft 192 kts 15°
2026-05-06 21:29 34.11391 -117.00737 9221 ft 193 kts 14°
2026-05-06 21:29 34.12690 -117.00371 9047 ft 191 kts 14°
2026-05-06 21:30 34.13983 -117.00006 8880 ft 191 kts 14°
2026-05-06 21:30 34.15278 -116.99641 8880 ft 187 kts 14°
2026-05-06 21:30 34.16539 -116.99286 8887 ft 185 kts 14°
2026-05-06 21:30 34.17781 -116.98935 8873 ft 181 kts 14°
2026-05-06 21:31 34.18943 -116.98449 8848 ft 182 kts 21°
2026-05-06 21:31 34.20188 -116.97906 8659 ft 194 kts 19°
2026-05-06 21:31 34.21405 -116.97446 8442 ft 174 kts 17°
2026-05-06 21:31 34.22414 -116.96850 8361 ft 152 kts 43°
2026-05-06 21:32 34.22963 -116.95860 8184 ft 135 kts 55°
2026-05-06 21:32 34.24015 -116.93980 7977 ft 137 kts 47°
2026-05-06 21:32 34.24610 -116.93076 7865 ft 140 kts 46°
2026-05-06 21:33 34.25165 -116.92090 7710 ft 142 kts 58°
2026-05-06 21:33 34.25540 -116.91122 7505 ft 115 kts 59°
2026-05-06 21:33 34.25794 -116.90302 7415 ft 95 kts 60°
2026-05-06 21:33 34.25985 -116.89509 7281 ft 102 kts 67°
2026-05-06 21:34 34.26045 -116.88641 7225 ft 97 kts 66°
2026-05-06 21:34 34.26260 -116.87885 7052 ft 95 kts 65°
2026-05-06 21:34 34.26371 -116.87081 6837 ft 97 kts 87°
2026-05-06 21:34 34.26376 -116.86295 6720 ft 83 kts 87°
2026-05-06 21:35 34.26388 -116.85729 6716 ft 51 kts 90°
2026-05-06 21:35 34.26384 -116.85449 6715 ft 26 kts 90°
2026-05-06 21:35 34.26381 -116.85254 6716 ft 21 kts 88°
2026-05-06 21:35 34.26382 -116.85088 6715 ft 19 kts 93°
2026-05-06 21:36 34.26382 -116.84943 6713 ft 14 kts 96°